Location: ČR
(50.0000°N, 15.0000°E)
Time: 06:48:50
(UTC+02:00)

A-11 Canister half - Pass Details

Date: 17 March 2026
Orbit: 1514 x 1685 km, 47.2° (Epoch: 18 April)

Event Time Altitude Azimuth Distance (km) Brightness Sun altitude
Rises 13:10:25 0° 217° (SW) 4,810 12.5 37.1°
Reaches altitude 10° 13:13:41 10° 211° (SSW) 3,850 12.4 36.9°
Maximum altitude 13:22:45 43° 145° (SE) 2,192 10.7 36.4°
Drops below altitude 10° 13:32:04 10° 78° (ENE) 3,949 10.9 35.7°
Sets 13:35:26 0° 72° (ENE) 4,944 11.3 35.5°
